| time (UTC) | temp F | wind direction | speed MPH | gust MPH | rain 1hr in | rain 24hr in | rain mn in | humidity % | barometer mb |
| 20260505193003 | 55 | 25 | 4.0 | 12.0 | 0.00 | 0.00 | 0.00 | 74 | 1011.1 |
| 20260505192003 | 56 | 21 | 4.0 | 11.0 | 0.00 | 0.00 | 0.00 | 74 | 1010.9 |
| 20260505190003 | 57 | 13 | 3.0 | 14.0 | 0.00 | 0.00 | 0.00 | 75 | 1010.7 |
| 20260505185003 | 57 | 23 | 3.0 | 9.0 | 0.00 | 0.00 | 0.00 | 75 | 1010.7 |
| 20260505183003 | 57 | 22 | 5.0 | 11.0 | 0.00 | 0.00 | 0.00 | 73 | 1010.6 |
| 20260505182003 | 58 | 6 | 3.0 | 11.0 | 0.00 | 0.00 | 0.00 | 72 | 1010.5 |
| 20260505181003 | 58 | 1 | 3.0 | 9.0 | 0.00 | 0.00 | 0.00 | 70 | 1010.5 |
| 20260505180004 | 58 | 9 | 4.0 | 8.0 | 0.00 | 0.00 | 0.00 | 69 | 1010.4 |
| 20260505174003 | 58 | 20 | 4.0 | 8.0 | 0.00 | 0.00 | 0.00 | 68 | 1010.5 |
| 20260505173003 | 59 | 359 | 5.0 | 10.0 | 0.00 | 0.00 | 0.00 | 68 | 1010.5 |
| 20260505172003 | 59 | 353 | 4.0 | 12.0 | 0.00 | 0.00 | 0.00 | 68 | 1010.5 |
| 20260505170003 | 59 | 351 | 4.0 | 10.0 | 0.00 | 0.00 | 0.00 | 67 | 1010.5 |
| 20260505165004 | 59 | 7 | 4.0 | 10.0 | 0.00 | 0.00 | 0.00 | 67 | 1010.5 |
| 20260505164003 | 60 | 5 | 4.0 | 11.0 | 0.00 | 0.00 | 0.00 | 66 | 1010.5 |
| 20260505163003 | 60 | 343 | 4.0 | 10.0 | 0.00 | 0.00 | 0.00 | 65 | 1010.5 |
| 20260505162003 | 60 | 349 | 4.0 | 12.0 | 0.00 | 0.00 | 0.00 | 66 | 1010.5 |
| 20260505161003 | 60 | 343 | 4.0 | 10.0 | 0.00 | 0.00 | 0.00 | 66 | 1010.5 |
| 20260505153003 | 60 | 349 | 3.0 | 8.0 | 0.00 | 0.00 | 0.00 | 63 | 1010.6 |
| 20260505152004 | 61 | 350 | 4.0 | 8.0 | 0.00 | 0.00 | 0.00 | 63 | 1010.6 |
| 20260505151003 | 61 | 340 | 3.0 | 10.0 | 0.00 | 0.00 | 0.00 | 63 | 1010.7 |
| 20260505125003 | 59 | 1 | 3.0 | 9.0 | 0.00 | 0.00 | 0.00 | 67 | 1011.3 |
| 20260505123003 | 60 | 6 | 3.0 | 6.0 | 0.00 | 0.00 | 0.00 | 66 | 1011.3 |
| 20260505122004 | 60 | 71 | 3.0 | 11.0 | 0.00 | 0.00 | 0.00 | 65 | 1011.3 |
| 20260505121003 | 60 | 61 | 2.0 | 8.0 | 0.00 | 0.00 | 0.00 | 65 | 1011.2 |
| 20260505120004 | 60 | 41 | 4.0 | 8.0 | 0.00 | 0.00 | 0.00 | 68 | 1011.3 |
| 20260505115003 | 59 | 8 | 3.0 | 9.0 | 0.00 | 0.00 | 0.00 | 67 | 1011.3 |
| 20260505114005 | 59 | 52 | 4.0 | 10.0 | 0.00 | 0.00 | 0.00 | 69 | 1011.4 |
| 20260505113004 | 58 | 13 | 3.0 | 8.0 | 0.00 | 0.00 | 0.00 | 70 | 1011.5 |
| 20260505112004 | 58 | 41 | 3.0 | 8.0 | 0.00 | 0.00 | 0.00 | 70 | 1011.5 |
| 20260505111005 | 58 | 54 | 3.0 | 8.0 | 0.00 | 0.00 | 0.00 | 70 | 1011.7 |
| 20260505102003 | 57 | 38 | 3.0 | 9.0 | 0.00 | 0.00 | 0.00 | 73 | 1012.0 |
| 20260505101003 | 57 | 28 | 4.0 | 8.0 | 0.00 | 0.00 | 0.00 | 75 | 1012.0 |
| 20260505100004 | 57 | 13 | 3.0 | 10.0 | 0.00 | 0.00 | 0.00 | 75 | 1012.0 |
| 20260505095003 | 57 | 30 | 3.0 | 12.0 | 0.00 | 0.00 | 0.00 | 78 | 1012.0 |
| 20260505094003 | 56 | 11 | 5.0 | 11.0 | 0.00 | 0.00 | 0.00 | 80 | 1012.2 |
| 20260505093003 | 55 | 36 | 3.0 | 12.0 | 0.00 | 0.00 | 0.00 | 79 | 1012.2 |
| 20260505092003 | 54 | 13 | 4.0 | 10.0 | 0.00 | 0.00 | 0.00 | 82 | 1012.2 |
| 20260505090004 | 53 | 355 | 3.0 | 8.0 | 0.00 | 0.00 | 0.00 | 87 | 1012.4 |
| 20260505085003 | 52 | 4 | 3.0 | 9.0 | 0.00 | 0.00 | 0.00 | 89 | 1012.5 |
| 20260505083003 | 51 | 346 | 2.0 | 8.0 | 0.00 | 0.00 | 0.00 | 90 | 1012.5 |
| 20260505082004 | 51 | 14 | 2.0 | 4.0 | 0.00 | 0.00 | 0.00 | 91 | 1012.4 |
| 20260505081004 | 51 | 6 | 3.0 | 6.0 | 0.00 | 0.00 | 0.00 | 91 | 1012.4 |
| 20260505080004 | 51 | 355 | 1.0 | 6.0 | 0.00 | 0.00 | 0.00 | 92 | 1012.3 |
| 20260505074003 | 51 | 342 | 1.0 | 4.0 | 0.00 | 0.00 | 0.00 | 93 | 1012.5 |
| 20260505072002 | 50 | 348 | 1.0 | 5.0 | 0.00 | 0.00 | 0.00 | 93 | 1012.4 |
| 20260505071003 | 50 | 347 | 2.0 | 4.0 | 0.00 | 0.00 | 0.00 | 94 | 1012.6 |
| 20260505070003 | 50 | 349 | 1.0 | 5.0 | 0.00 | 0.00 | 0.00 | 94 | 1012.6 |
| 20260505065003 | 50 | 349 | 1.0 | 3.0 | 0.00 | 0.00 | 0.00 | 94 | 1012.6 |
| 20260505064003 | 50 | 349 | 1.0 | 3.0 | 0.00 | 0.00 | 0.00 | 94 | 1012.7 |
| 20260505062003 | 50 | 349 | 1.0 | 3.0 | 0.00 | 0.00 | 0.00 | 94 | 1012.6 |
| 20260505061004 | 50 | 349 | 1.0 | 4.0 | 0.00 | 0.00 | 0.00 | 94 | 1012.6 |
| 20260505060003 | 49 | 349 | 1.0 | 4.0 | 0.00 | 0.00 | 0.00 | 94 | 1012.6 |
| 20260505055003 | 49 | 350 | 1.0 | 4.0 | 0.00 | 0.00 | 0.00 | 94 | 1012.7 |
| 20260505054003 | 49 | 350 | 1.0 | 4.0 | 0.00 | 0.00 | 0.00 | 94 | 1012.8 |
| 20260505053003 | 49 | 2 | 2.0 | 5.0 | 0.00 | 0.00 | 0.00 | 94 | 1012.8 |
| 20260505051003 | 49 | 29 | 0.0 | 3.0 | 0.00 | 0.00 | 0.00 | 94 | 1012.8 |
| 20260505041003 | 48 | 30 | 1.0 | 3.0 | 0.00 | 0.00 | 0.00 | 94 | 1012.9 |
| 20260505035003 | 48 | 30 | 0.0 | 2.0 | 0.00 | 0.00 | 0.00 | 94 | 1012.8 |
| 20260505033003 | 48 | 30 | 0.0 | 3.0 | 0.00 | 0.00 | 0.00 | 94 | 1012.9 |
| 20260505032003 | 48 | 0 | 0.0 | 2.0 | 0.00 | 0.00 | 0.00 | 93 | 1013.0 |
| 20260505031003 | 48 | 36 | 1.0 | 4.0 | 0.00 | 0.00 | 0.00 | 93 | 1012.9 |
| 20260505030003 | 48 | 42 | 1.0 | 2.0 | 0.00 | 0.00 | 0.00 | 93 | 1012.9 |
| 20260505025004 | 49 | 42 | 0.0 | 2.0 | 0.00 | 0.00 | 0.00 | 92 | 1012.8 |
| 20260505022004 | 50 | 42 | 0.0 | 3.0 | 0.00 | 0.00 | 0.00 | 92 | 1012.7 |
| 20260505021003 | 50 | 43 | 0.0 | 2.0 | 0.00 | 0.00 | 0.00 | 91 | 1012.8 |
| 20260505020004 | 50 | 42 | 1.0 | 3.0 | 0.00 | 0.00 | 0.00 | 91 | 1012.6 |
| 20260505015003 | 51 | 42 | 1.0 | 4.0 | 0.00 | 0.00 | 0.00 | 91 | 1013.0 |
| 20260505014003 | 51 | 30 | 1.0 | 5.0 | 0.00 | 0.00 | 0.00 | 91 | 1013.1 |
| 20260505013003 | 51 | 30 | 1.0 | 4.0 | 0.00 | 0.00 | 0.00 | 91 | 1013.3 |
| 20260505012003 | 51 | 0 | 0.0 | 5.0 | 0.00 | 0.00 | 0.00 | 91 | 1013.3 |
| 20260505011003 | 51 | 25 | 1.0 | 3.0 | 0.00 | 0.00 | 0.00 | 91 | 1013.4 |
| 20260505010003 | 51 | 25 | 2.0 | 4.0 | 0.00 | 0.00 | 0.00 | 91 | 1013.3 |
| 20260505005004 | 51 | 22 | 1.0 | 4.0 | 0.00 | 0.00 | 0.00 | 91 | 1013.4 |
| 20260505003003 | 51 | 20 | 1.0 | 5.0 | 0.00 | 0.00 | 0.00 | 90 | 1013.4 |
| 20260505002003 | 52 | 20 | 1.0 | 4.0 | 0.00 | 0.00 | 0.00 | 90 | 1013.4 |
| 20260505001003 | 52 | 16 | 1.0 | 4.0 | 0.00 | 0.00 | 0.00 | 89 | 1013.4 |
| 20260505000004 | 52 | 15 | 1.0 | 4.0 | 0.00 | 0.00 | 0.00 | 89 | 1013.5 |
| 20260504232004 | 53 | 38 | 2.0 | 4.0 | 0.00 | 0.00 | 0.00 | 88 | 1013.8 |
| 20260504231003 | 53 | 35 | 2.0 | 6.0 | 0.00 | 0.00 | 0.00 | 88 | 1013.8 |
| 20260504230003 | 53 | 15 | 2.0 | 8.0 | 0.00 | 0.00 | 0.00 | 88 | 1013.7 |
| 20260504225004 | 53 | 15 | 2.0 | 5.0 | 0.00 | 0.00 | 0.00 | 87 | 1013.9 |
| 20260504224003 | 53 | 21 | 2.0 | 7.0 | 0.00 | 0.00 | 0.00 | 87 | 1013.9 |
| 20260504223004 | 53 | 9 | 2.0 | 8.0 | 0.00 | 0.00 | 0.00 | 87 | 1014.0 |
| 20260504222003 | 53 | 12 | 2.0 | 7.0 | 0.00 | 0.00 | 0.00 | 87 | 1014.0 |
| 20260504220003 | 54 | 18 | 3.0 | 10.0 | 0.00 | 0.00 | 0.00 | 87 | 1014.1 |
| 20260504215003 | 54 | 26 | 3.0 | 8.0 | 0.00 | 0.00 | 0.00 | 87 | 1014.1 |
| 20260504214004 | 54 | 36 | 3.0 | 10.0 | 0.00 | 0.00 | 0.00 | 86 | 1014.1 |
| 20260504213003 | 54 | 28 | 3.0 | 9.0 | 0.00 | 0.00 | 0.00 | 86 | 1014.0 |
| 20260504212003 | 54 | 31 | 3.0 | 11.0 | 0.00 | 0.00 | 0.00 | 86 | 1014.0 |
| 20260504211004 | 54 | 36 | 5.0 | 10.0 | 0.00 | 0.00 | 0.00 | 86 | 1014.0 |
| 20260504210003 | 55 | 36 | 5.0 | 11.0 | 0.00 | 0.00 | 0.00 | 86 | 1014.0 |
| 20260504205003 | 55 | 28 | 4.0 | 11.0 | 0.00 | 0.00 | 0.00 | 86 | 1014.0 |
| 20260504204005 | 55 | 2 | 3.0 | 8.0 | 0.00 | 0.00 | 0.00 | 85 | 1014.0 |
| 20260504202004 | 56 | 13 | 3.0 | 9.0 | 0.00 | 0.00 | 0.00 | 85 | 1014.0 |
| 20260504200004 | 56 | 19 | 2.0 | 6.0 | 0.00 | 0.00 | 0.00 | 85 | 1013.9 |
| 20260504195003 | 56 | 11 | 3.0 | 10.0 | 0.00 | 0.00 | 0.00 | 85 | 1013.8 |
| 20260504194003 | 56 | 11 | 3.0 | 8.0 | 0.00 | 0.00 | 0.00 | 85 | 1013.7 |